Flag for Uruguay Weather past 2 weeks in Montevideo, Uruguay

Now
52 °F

Passing clouds.


Feels Like: 50 °F
Forecast: 53 / 62 °F
Wind: 6 mph from South

Location: Carrasco


UV Index: 3 (Moderate)

Visibility: N/A


Pressure: 30.18 "Hg

Humidity: 88%

Dew point: 48 °F

Location of MontevideoLocation

Historic Weather in Montevideo

°F

Montevideo temperature yesterday

Maximum temperature yesterday: 68 °F (at 1:00 PM)
Minimum temperature yesterday: 48 °F (at 3:00 AM)
Average temperature yesterday: 55 °F

Past Weeks' High & Low Weather Summary

 TemperatureHumidityPressure
High75 °F (Apr 17, 1:00 PM)100% (Apr 16, 10:00 PM)30.21 "Hg (Apr 16, 10:00 PM)
Low43 °F (Apr 23, 7:00 AM)41% (Apr 25, 12:00 AM)29.56 "Hg (Apr 12, 6:00 AM)
Average60 °F77%30.03 "Hg
* Reported Apr 10 5:00 AM — Apr 25 5:00 AM, Montevideo, Weather by CustomWeather, © 2014

Note: Actual official high and low records may vary slightly from our data, if they occured in-between our weather recording intervals... More about our weather records

Advertising

Historic Weather Conditions — Data for Previous 24 hours

 ConditionsComfort  
Time TempWeatherWind HumidityBarometerVisibility
5:00 AM
Apr 25
54 °FPassing clouds.7 mph77%30.18 "HgN/A
4:00 AM54 °FPassing clouds.5 mph77%30.18 "HgN/A
3:00 AM54 °FPassing clouds.7 mph77%30.18 "HgN/A
2:00 AM55 °FPassing clouds.6 mph82%30.21 "HgN/A
1:00 AM55 °FPassing clouds.9 mph82%30.21 "HgN/A
12:00 AM57 °FPassing clouds.7 mph41%30.21 "HgN/A
11:00 PM
Apr 24
57 °FPassing clouds.8 mph82%30.21 "HgN/A
10:00 PM59 °FPassing clouds.9 mph82%30.21 "HgN/A
9:00 PM59 °FPartly cloudy.8 mph82%30.21 "HgN/A
8:00 PM59 °FPassing clouds.6 mph77%30.18 "HgN/A
7:00 PM59 °FPassing clouds.7 mph82%30.18 "HgN/A
6:00 PM59 °FPassing clouds.9 mph82%30.18 "HgN/A
4:00 PM63 °FScattered clouds.8 mph77%30.18 "HgN/A
1:00 PM68 °FPassing clouds.5 mph49%30.18 "HgN/A
10:00 AM63 °FPassing clouds.No wind83%30.21 "Hg4 mi
9:00 AM54 °FFog.No wind94%30.21 "Hg3 mi
8:00 AM50 °FFog.No wind94%30.18 "Hg3 mi
7:05 AM48 °FFog.No wind94%30.18 "Hg2 mi
7:00 AM50 °FSunny.No wind94%30.18 "Hg10 mi
6:00 AM48 °FClear.No wind100%30.15 "Hg10 mi
Weather by CustomWeather, © 2014

See weather overview